This is the latest recevied weather packets stored in our database for station/object EB2EMZ-15. If no packets are shown the sender has not sent any weather packets the latest 1 day(s).
| Time | Temp. | Humidity | Pressure | Rain* | Wind** | Luminosity | Snow |
|---|---|---|---|---|---|---|---|
| 1777979412 | 16.67° C | 64% | 993.2 hPa | 0 mm | 0 m/s | - | - |
| 1777979109 | 17.22° C | 62% | 993.2 hPa | 0 mm | 0 m/s | - | - |
| 1777978809 | 17.78° C | 61% | 993.1 hPa | 0 mm | 0 m/s | - | - |
| 1777978510 | 18.89° C | 61% | 992.9 hPa | 0 mm | 0 m/s | - | - |
| 1777978212 | 18.89° C | 62% | 992.9 hPa | 0 mm | 0 m/s | - | - |
| 1777977909 | 18.89° C | 62% | 992.9 hPa | 0 mm | 0 m/s | - | - |
| 1777977612 | 18.89° C | 62% | 992.8 hPa | 0 mm | 0 m/s | - | - |
| 1777977310 | 18.33° C | 61% | 992.8 hPa | 0 mm | 0 m/s | - | - |
| 1777977012 | 18.33° C | 60% | 992.8 hPa | 0 mm | 0 m/s | - | - |
| 1777976709 | 18.33° C | 59% | 992.9 hPa | 0 mm | 0 m/s | - | - |
| 1777976412 | 18.33° C | 57% | 992.9 hPa | 0 mm | 0 m/s | - | - |
| 1777976109 | 18.89° C | 55% | 992.9 hPa | 0 mm | 0 m/s | - | - |
| 1777975811 | 18.89° C | 54% | 992.8 hPa | 0 mm | 0 m/s | - | - |
| 1777975509 | 19.44° C | 53% | 992.9 hPa | 0 mm | 0 m/s | - | - |
| 1777975209 | 20° C | 55% | 992.8 hPa | 0 mm | 0 m/s | - | - |
| 1777974909 | 20° C | 54% | 993 hPa | 0 mm | 0 m/s | - | - |
| 1777974612 | 20.56° C | 53% | 993 hPa | 0 mm | 0 m/s | - | - |
| 1777974308 | 21.11° C | 52% | 993 hPa | 0 mm | 0 m/s | - | - |
| 1777974012 | 21.67° C | 52% | 993.1 hPa | 0 mm | 0 m/s | - | - |
| 1777973709 | 19.44° C | 56% | 993.1 hPa | 0 mm | 0 m/s | - | - |
| 1777973412 | 19.44° C | 56% | 993.1 hPa | 0 mm | 0 m/s | - | - |
| 1777973109 | 20° C | 54% | 993.1 hPa | 0 mm | 0 m/s | - | - |
| 1777972813 | 21.11° C | 54% | 993.2 hPa | 0 mm | 0 m/s | - | - |
| 1777972508 | 21.67° C | 54% | 993.1 hPa | 0 mm | 0 m/s | - | - |
| 1777972214 | 22.78° C | 54% | 993.1 hPa | 0 mm | 0 m/s | - | - |
* Rain latest hour (hover to see other rain measurements)
** Current wind speed in m/s (hover to see current wind gust speed)